Location: *
(50.8667°S, 179.2667°W)
Time: 01:17:05
(UTC+00:00)

Cosmos 2227 Rocket - Pass Details

Date: 02 October 2023
Orbit: 839 x 843 km, 71.0° (Epoch: 30 November)

Event Time Altitude Azimuth Distance (km) Brightness Sun altitude
Rises 13:07:20 0° 209° (SSW) 3,435 5.8 -32.8°
Reaches altitude 10° 13:09:58 10° 201° (SSW) 2,496 5.1 -32.7°
Maximum altitude 13:15:21 40° 131° (SE) 1,242 3.4 -32.3°
Enters shadow 13:17:53 26° 81° (E) 1,607 3.7 -32.1°
